Wind_Speed
14 15 16 17 17 17 16 15 15 14 14 13 12 12 11 10 10 10 10 11 10 10 10 10 11 12 12 13 12 11 10 10 11 12 12 11 10 10 10 9 9 9
14 14 15 15 15 16 15 15 14 14 13 13 12 11 11 10 9 10 10 10 9 9 9 10 11 12 12 12 11 10 10 11 12 12 10 9 10 10 9 8 7 7
14 14 14 14 14 14 14 14 14 14 13 12 12 11 10 10 10 10 10 9 9 9 9 9 10 11 11 11 10 11 11 11 10 9 8 8 9 9 8 8 6 6
12 13 14 13 13 13 14 14 14 14 13 12 12 11 10 10 10 10 10 10 10 10 10 10 10 11 11 11 11 11 10 9 8 8 8 7 7 8 8 8 7 7
12 13 13 14 14 13 13 14 13 13 13 12 11 11 11 11 11 11 11 11 11 11 10 10 10 11 11 11 11 10 9 9 9 9 8 8 8 9 9 8 8 8
12 12 13 13 14 14 14 13 13 13 13 12 12 11 11 11 11 11 11 11 11 11 10 10 10 10 11 11 10 10 10 11 11 11 10 10 10 11 10 9 9 9
12 13 13 13 14 14 14 13 13 13 13 13 12 12 12 12 12 12 12 12 11 11 10 9 9 10 10 10 10 11 11 12 12 12 12 11 11 11 11 11 10 9
13 13 13 13 13 14 14 14 14 14 13 13 13 13 14 14 13 13 13 12 12 11 11 10 9 9 9 10 11 11 12 11 12 12 12 12 12 12 11 10 9 9
14 14 13 13 13 14 14 14 14 14 14 14 14 14 15 15 15 15 14 14 13 13 12 11 11 11 11 11 11 11 11 11 12 12 12 12 12 12 11 10 9 10
16 15 14 14 14 14 15 15 15 15 15 14 15 15 16 16 16 16 16 15 15 14 14 13 13 13 13 12 12 11 11 12 12 12 12 12 12 12 11 10 11 12
18 17 16 16 16 16 16 16 16 16 16 16 16 16 16 16 16 16 16 15 15 15 15 15 15 15 15 14 13 13 13 14 14 14 13 13 13 12 12 13 13 12
20 19 19 19 19 18 18 18 17 17 17 17 17 17 16 16 16 16 16 16 16 16 17 17 17 16 16 15 15 15 15 15 15 15 14 14 14 13 13 14 14 13
20 20 21 21 21 21 20 19 19 18 19 19 18 18 17 17 18 18 17 18 18 18 18 18 17 17 16 16 15 15 15 16 16 16 16 16 16 15 15 15 15 15
20 20 21 22 22 22 21 21 21 20 21 20 20 19 18 19 20 19 18 19 19 19 19 18 18 18 17 17 16 16 16 17 17 17 17 17 17 17 16 16 17 17
23 23 22 22 22 22 22 22 23 23 23 22 21 21 20 20 21 21 21 21 21 21 21 20 20 20 19 18 18 18 18 18 18 19 19 19 19 19 19 18 19 19
26 25 24 24 23 23 23 23 25 25 25 24 23 22 22 22 22 22 22 21 21 22 22 22 22 22 21 20 20 20 20 20 20 21 21 21 21 21 21 21 21 21
27 27 27 27 26 26 25 25 26 26 25 24 24 24 23 24 24 23 22 22 22 23 24 24 24 23 23 22 21 22 22 22 22 22 22 22 22 22 22 22 22 22
26 28 30 31 30 29 28 28 27 25 25 25 25 25 26 26 26 24 23 23 23 23 24 24 24 24 24 23 23 23 24 24 24 23 23 22 22 23 23 24 24 24
28 30 32 34 33 31 30 31 29 26 26 27 27 28 28 28 28 27 26 26 25 25 25 26 26 26 26 26 26 26 26 26 26 25 25 24 24 25 25 25 26 26
29 31 33 33 33 33 32 33 32 31 30 30 30 30 29 29 30 29 29 29 28 28 28 29 30 30 29 29 29 29 28 28 28 28 27 27 27 27 27 27 28 28
31 34 34 32 33 34 35 35 35 34 33 32 31 31 30 30 30 31 31 31 31 30 30 31 32 33 32 31 31 30 30 30 30 30 30 30 30 29 29 29 29 29
32 34 34 31 32 33 34 35 36 36 35 34 33 32 31 31 31 32 32 32 32 32 32 32 32 33 34 34 33 32 32 31 31 32 33 33 32 31 30 30 30 30
31 31 31 29 28 27 29 31 34 35 35 35 34 33 32 32 32 33 34 34 34 34 34 34 35 34 34 35 35 35 34 32 32 32 33 33 32 32 31 30 30 31
28 28 28 26 24 24 25 25 25 28 31 33 34 35 35 33 33 34 36 36 35 35 36 37 38 38 38 38 38 37 36 34 33 34 34 34 33 32 31 31 32 33
27 26 26 25 24 23 23 21 20 22 26 28 32 34 35 34 33 35 37 37 37 38 38 38 39 40 40 42 42 41 38 36 36 36 37 37 35 34 34 35 34 34
29 28 27 27 26 25 24 24 24 24 24 26 29 31 32 32 31 34 38 40 40 40 38 37 39 42 44 46 47 45 42 39 37 39 39 38 38 37 37 36 34 32
Wind_Direction
167 169 171 174 176 181 186 190 192 196 201 206 208 212 217 221 225 231 233 234 235 232 230 229 229 229 231 235 238 239 241 245 247 249 254 260 264 267 270 275 278 280
177 179 180 182 183 185 189 193 197 202 207 210 214 217 221 226 226 228 232 234 234 232 229 228 228 227 229 231 232 233 234 237 241 246 252 257 260 263 267 268 270 273
185 187 189 190 191 191 193 195 199 206 211 213 217 221 225 228 226 224 226 228 229 230 228 226 227 226 225 227 227 227 229 234 242 247 249 251 254 257 257 252 250 251
199 196 197 198 199 198 198 200 202 207 212 216 219 222 225 227 225 221 218 219 221 222 221 221 222 222 222 222 223 223 225 231 235 235 236 240 242 244 243 238 236 237
215 211 208 205 205 205 206 207 208 211 214 217 219 219 222 225 224 220 214 212 214 216 217 217 216 217 218 218 219 219 218 220 223 223 225 226 225 228 231 231 233 236
223 222 221 218 215 213 214 214 215 217 217 217 218 218 218 220 220 218 213 211 212 213 214 215 215 216 216 215 215 215 218 220 220 220 221 222 223 224 226 229 233 236
227 226 225 226 225 222 220 219 220 221 220 218 218 215 214 217 217 215 213 212 211 209 208 211 215 217 215 215 214 215 219 223 225 226 225 226 227 228 229 232 234 238
226 228 227 226 228 228 225 223 222 222 222 221 219 216 213 214 216 215 213 212 212 208 204 205 211 218 218 218 218 220 223 227 230 233 234 233 232 231 233 237 240 244
225 226 228 226 225 227 226 225 225 224 223 223 222 220 217 214 215 216 213 212 210 208 205 202 204 211 216 220 223 226 230 233 234 236 238 238 237 236 238 240 243 249
226 224 225 227 226 225 226 226 225 225 224 223 223 223 223 221 218 217 216 214 211 208 208 207 206 208 211 217 223 229 234 237 238 239 240 242 244 242 243 248 254 258
227 225 222 224 225 225 225 225 225 225 224 224 224 224 226 225 223 220 219 219 218 216 214 212 211 212 212 214 220 225 231 237 241 244 245 248 249 245 245 255 264 268
225 225 223 223 223 224 224 225 225 225 225 225 226 226 226 224 224 224 223 224 224 224 223 218 215 216 217 219 224 228 232 237 241 244 247 249 251 250 252 259 264 266
228 227 226 224 223 224 225 226 227 227 227 227 227 227 226 224 224 224 225 228 228 228 229 226 221 220 221 222 227 231 235 239 242 243 245 248 251 253 254 258 261 263
240 238 236 232 227 225 226 228 230 230 230 230 228 228 226 225 228 228 227 229 230 230 231 231 229 229 228 228 231 233 236 241 245 247 249 251 252 253 254 256 259 262
240 241 241 240 236 232 229 230 231 231 232 232 232 231 229 228 229 230 230 231 233 234 234 234 235 236 235 235 236 236 237 240 244 248 252 255 256 256 256 257 259 262
242 241 240 240 240 239 236 234 234 234 234 234 234 234 233 233 233 231 231 231 233 236 238 239 240 242 242 243 244 244 244 244 245 248 252 256 258 259 260 261 263 265
249 248 245 242 241 240 238 237 236 236 237 237 238 239 239 240 240 237 234 232 232 236 239 241 243 245 246 246 246 248 249 248 248 250 252 255 258 261 263 265 266 267
252 251 247 245 243 242 241 240 237 238 240 239 239 240 241 243 243 242 239 237 236 235 237 240 242 245 246 246 246 247 249 249 249 250 253 256 258 259 261 264 266 267
251 251 248 246 245 244 244 244 239 237 239 240 239 240 240 242 244 244 243 242 241 239 240 242 242 243 244 245 247 250 251 252 253 254 255 256 257 259 260 262 264 265
245 247 247 249 249 245 242 242 239 236 236 238 239 241 242 243 245 246 246 245 245 244 245 247 249 249 247 246 248 252 254 256 257 258 259 259 259 259 260 261 263 265
242 243 247 251 252 246 238 236 238 239 239 238 239 241 243 244 246 248 249 250 250 248 247 249 253 256 257 256 254 253 255 258 261 262 262 262 262 262 262 262 264 266
246 248 253 255 253 250 244 239 241 244 244 242 243 243 244 245 246 248 250 251 252 253 252 251 252 255 259 261 261 259 258 259 261 263 264 264 263 264 265 266 268 270
248 251 254 254 252 251 249 244 244 246 247 247 249 250 251 251 249 248 248 249 251 253 255 256 256 257 258 260 262 262 261 261 260 260 263 264 265 265 266 268 271 272
249 252 254 253 248 246 245 243 243 247 249 251 253 253 254 254 253 251 249 248 251 253 255 257 258 260 261 262 261 260 260 261 260 260 261 264 266 266 267 269 272 273
251 256 259 259 256 252 251 250 248 250 255 257 256 254 252 253 256 256 251 248 251 255 257 259 262 264 265 264 261 259 257 258 259 260 263 265 267 267 270 274 275 274
253 258 263 265 265 264 263 260 257 257 260 261 259 257 255 254 255 256 252 248 249 255 260 264 267 267 267 266 263 259 256 256 259 261 261 263 265 267 270 272 272 270
Height
5904 5905 5905 5906 5907 5908 5909 5909 5910 5910 5911 5911 5912 5913 5913 5914 5915 5915 5916 5916 5917 5917 5918 5918 5919 5919 5919 5920 5920 5921 5922 5922 5922 5922 5923 5924 5924 5925 5925 5926 5926 5927
5904 5904 5905 5906 5906 5907 5908 5909 5909 5910 5910 5911 5911 5912 5912 5913 5913 5914 5914 5915 5916 5916 5917 5917 5918 5918 5919 5919 5920 5920 5921 5921 5921 5922 5922 5923 5924 5924 5924 5925 5926 5926
5903 5903 5904 5905 5905 5906 5907 5908 5908 5909 5909 5910 5910 5911 5911 5912 5912 5913 5913 5914 5914 5915 5915 5916 5917 5917 5918 5918 5919 5919 5920 5920 5920 5921 5922 5922 5922 5923 5923 5924 5924 5925
5902 5902 5903 5904 5904 5905 5906 5906 5907 5908 5908 5908 5909 5909 5910 5910 5911 5912 5912 5913 5913 5914 5914 5915 5916 5916 5917 5918 5918 5918 5919 5919 5920 5920 5920 5921 5922 5922 5922 5923 5923 5924
5901 5901 5902 5902 5903 5903 5904 5905 5906 5906 5907 5907 5907 5908 5908 5909 5910 5910 5911 5912 5912 5913 5914 5914 5915 5916 5917 5917 5917 5918 5918 5919 5919 5919 5919 5920 5920 5921 5921 5922 5923 5923
5899 5900 5900 5901 5902 5902 5903 5903 5904 5905 5905 5906 5906 5906 5907 5907 5908 5909 5910 5910 5911 5912 5913 5914 5914 5915 5916 5916 5917 5917 5917 5918 5918 5918 5918 5918 5919 5920 5921 5921 5922 5922
5897 5898 5898 5899 5900 5901 5901 5902 5903 5903 5904 5904 5905 5905 5905 5906 5907 5907 5908 5909 5910 5911 5912 5913 5914 5914 5915 5915 5915 5916 5916 5916 5917 5917 5917 5918 5919 5920 5920 5920 5920 5921
5895 5896 5897 5898 5899 5899 5900 5901 5901 5902 5902 5903 5903 5904 5904 5905 5905 5906 5907 5907 5908 5909 5910 5911 5912 5913 5913 5914 5914 5915 5915 5916 5916 5916 5917 5918 5918 5919 5919 5919 5920 5920
5893 5894 5895 5896 5897 5898 5898 5899 5900 5900 5901 5902 5902 5903 5903 5904 5904 5905 5905 5906 5907 5908 5909 5909 5910 5911 5912 5913 5914 5914 5915 5915 5915 5916 5916 5917 5917 5917 5918 5918 5919 5919
5891 5892 5894 5894 5895 5896 5897 5897 5898 5899 5899 5900 5901 5902 5902 5903 5903 5904 5905 5905 5906 5906 5907 5908 5909 5910 5911 5912 5913 5913 5914 5914 5914 5915 5915 5916 5916 5917 5917 5917 5917 5917
5888 5889 5891 5892 5893 5894 5894 5895 5896 5897 5897 5898 5899 5900 5901 5902 5902 5903 5904 5904 5905 5905 5906 5907 5907 5908 5909 5910 5911 5911 5912 5912 5913 5913 5914 5914 5915 5915 5916 5915 5915 5915
5885 5886 5887 5889 5890 5891 5892 5893 5894 5895 5896 5896 5897 5898 5899 5900 5901 5902 5902 5903 5903 5904 5904 5905 5905 5906 5907 5908 5908 5909 5910 5910 5910 5911 5911 5912 5913 5913 5913 5913 5913 5913
5883 5884 5884 5885 5887 5888 5890 5891 5892 5893 5894 5895 5895 5896 5897 5898 5899 5899 5900 5901 5902 5902 5902 5903 5904 5905 5905 5906 5906 5907 5908 5908 5908 5909 5909 5910 5910 5911 5911 5911 5911 5911
5881 5882 5882 5883 5884 5886 5888 5889 5890 5891 5891 5892 5893 5894 5895 5896 5896 5897 5898 5899 5900 5900 5900 5901 5902 5903 5903 5904 5904 5905 5906 5906 5906 5907 5907 5907 5908 5908 5909 5909 5908 5908
5877 5878 5880 5881 5882 5884 5885 5886 5887 5888 5889 5889 5890 5891 5892 5893 5894 5895 5896 5897 5898 5898 5898 5899 5900 5900 5901 5902 5902 5903 5903 5903 5904 5904 5904 5905 5905 5905 5906 5906 5906 5906
5874 5875 5877 5878 5879 5881 5882 5883 5884 5885 5886 5887 5888 5889 5890 5891 5892 5893 5895 5896 5897 5897 5897 5897 5897 5898 5899 5900 5900 5900 5900 5900 5901 5901 5901 5902 5902 5903 5903 5903 5903 5903
5872 5873 5873 5874 5875 5876 5878 5879 5880 5882 5884 5885 5886 5887 5887 5888 5889 5890 5892 5893 5894 5894 5894 5894 5895 5896 5897 5898 5898 5898 5898 5898 5898 5898 5898 5899 5899 5899 5899 5900 5900 5900
5868 5868 5868 5868 5870 5872 5874 5875 5877 5879 5881 5883 5883 5884 5884 5885 5885 5887 5888 5889 5890 5891 5891 5891 5892 5893 5893 5894 5895 5895 5895 5895 5896 5895 5895 5895 5895 5896 5896 5896 5897 5897
5863 5862 5862 5862 5865 5869 5871 5872 5874 5875 5877 5878 5879 5880 5880 5881 5882 5883 5885 5886 5887 5887 5888 5888 5888 5889 5889 5890 5891 5892 5892 5892 5893 5893 5893 5892 5892 5892 5892 5893 5893 5893
5858 5857 5857 5858 5862 5865 5867 5868 5868 5870 5871 5873 5875 5876 5877 5877 5878 5879 5881 5882 5883 5884 5885 5885 5885 5885 5886 5887 5887 5888 5889 5889 5890 5890 5890 5890 5889 5889 5889 5889 5889 5889
5854 5852 5853 5857 5859 5860 5862 5863 5863 5864 5866 5868 5870 5872 5873 5874 5875 5876 5877 5878 5879 5880 5881 5882 5882 5882 5883 5883 5884 5885 5885 5886 5886 5886 5886 5886 5886 5885 5885 5885 5885 5885
5853 5851 5853 5856 5856 5855 5857 5860 5861 5862 5863 5865 5866 5867 5869 5870 5871 5872 5873 5874 5874 5875 5876 5877 5878 5879 5879 5880 5880 5881 5882 5882 5882 5882 5882 5882 5882 5881 5881 5881 5881 5881
5851 5851 5852 5854 5854 5853 5855 5857 5858 5859 5860 5860 5861 5862 5864 5865 5867 5868 5868 5869 5870 5870 5871 5872 5873 5874 5875 5875 5875 5876 5877 5877 5878 5878 5878 5878 5877 5877 5877 5877 5877 5877
5849 5850 5850 5851 5852 5852 5852 5854 5855 5855 5855 5855 5856 5857 5858 5860 5862 5863 5864 5864 5865 5866 5867 5867 5868 5869 5869 5870 5870 5870 5871 5872 5872 5872 5873 5873 5873 5873 5872 5872 5872 5872
5847 5848 5848 5849 5849 5850 5851 5852 5853 5853 5853 5853 5853 5853 5854 5855 5857 5858 5859 5860 5861 5861 5862 5863 5863 5864 5865 5864 5864 5864 5865 5866 5867 5867 5867 5868 5868 5869 5868 5867 5868 5868
5843 5844 5844 5845 5846 5848 5848 5849 5850 5851 5852 5852 5851 5851 5851 5852 5853 5854 5854 5855 5856 5857 5858 5859 5860 5860 5859 5858 5858 5858 5859 5861 5862 5862 5862 5862 5863 5863 5863 5863 5863 5863